Zurück zum Katalog

SL-12 R/B(2)

AktivGEO
NORAD 16339·ROCKET BODY·🇷🇺 Russia

Gestartet Nov 15, 1985 von Baikonur Cosmodrome

Loading…

TLE

AktuellSource: Space-Track

Epoche: Sep 13, 2026, 19:14 UTC

1 16339U 85107F   26256.80196150 -.00000065  00000-0  00000-0 0  9996
2 16339  10.9420 322.3827 0017028 128.7062 245.9209  0.97493890128248

Verfolge SL-12 R/B(2) in Echtzeit mit AllMySat

Download on the App Store